Regional Weather Roundup
Issued by NWS

Home | Current Version | Previous Version | Graphics & Text | Print | Product List | Glossary Off
Versions: 1 2 3 4 5 6 7 8 9 10 11 12 13 14 15 16 17 18 19 20 21 22 23 24 25 26 27 28 29 30 31 32 33 34 35 36 37 38 39 40 41 42 43 44 45 46 47 48 49 50

000
ASUS45 KCYS 022210
RWRWY

WYOMING REGIONAL WEATHER ROUNDUP
NATIONAL WEATHER SERVICE CHEYENNE WY
400 PM MDT WED SEP 02 2015

NOTE:  "FAIR" INDICATES FEW OR NO CLOUDS BELOW 12,000 FEET
WITH NO SIGNIFICANT WEATHER AND/OR OBSTRUCTIONS TO VISIBILITY.

WYZ001-022300-
YELLOWSTONE NATIONAL PARK

CITY           SKY/WX    TMP DP  RH WIND       PRES   REMARKS
LK YELLOWSTONE   N/A     70  31  23 VRB6      30.11F
W YELLOWSTONE  NOT AVBL

$$
WYZ002>013-054>058-071-098>099-022300-
NORTHERN WYOMING

CITY           SKY/WX    TMP DP  RH WIND       PRES   REMARKS
JACKSON        FAIR      82  34  17 SW16G24   30.01F
CODY           FAIR      88  30  12 SW13      29.84F
GREYBULL       FAIR      95  31  10 S21G28    29.74F
WORLAND        FAIR      95  32  11 SW13      29.80F HX  90
SHERIDAN       FAIR      97  28   8 SW14      29.76F HX  91
BUFFALO        FAIR      93  30  10 SW16G23   29.86F
GILLETTE       FAIR      92  33  12 SW16      29.82F
HULETT         FAIR      95  32  11 S5        29.84F HX  90
NEWCASTLE      FAIR      95  28   9 SW12      29.86S

$$
WYZ014>020-022>026-101>103-022300-
CENTRAL WYOMING

CITY           SKY/WX    TMP DP  RH WIND       PRES   REMARKS
BIG PINEY      FAIR      78  35  21 W16G28    30.09F
PINEDALE       FAIR      79  30  17 SW16G24   30.09F
DUBOIS         FAIR      77  27  15 W17G24    30.05F
LANDER         FAIR      88  30  12 SW15G31   29.92F
RIVERTON       FAIR      87  27  11 SW15G25   29.92F
CASPER         FAIR      87  30  13 SW16G30   29.96F
DOUGLAS        FAIR      93  28  10 W12G24    29.94F

$$
WYZ021-027>030-104>119-022300-
SOUTHERN WYOMING

CITY           SKY/WX    TMP DP  RH WIND       PRES   REMARKS
EVANSTON       FAIR      79  32  18 SW16G32   30.12F
KEMMERER       FAIR      79  32  18 SW28G33   30.12F
FORT BRIDGER   PTCLDY    81  32  17 W16G31    30.14F
ROCK SPRINGS   FAIR      78  37  22 S12       30.08F
DIXON          FAIR      82  39  22 S16G24    30.15S
RAWLINS        FAIR      83  36  18 SW23G32   30.11F
SARATOGA       MOCLDY    81  36  19 S14G22    30.15F
LARAMIE        FAIR      78  34  20 VRB3G17   30.15F
CHEYENNE       PTSUNNY   87  33  14 VRB3      30.06F
TORRINGTON     FAIR      95  37  13 VRB5      29.88F HX  90
PINE BLUFFS    FAIR      90  32  12 NW9       30.00F

$$



USA.gov is the U.S. government's official web portal to all federal, state and local government web resources and services.